INMARSAT 5-F1

Last updated on Sun Mar 15 2026 00:02:54 GMT+0000 (Coordinated Universal Time)

1 39476U 13073A 26072.69041523 .00000028 00000+0 00000+0 0 9998 2 39476 0.0188 141.3479 0000414 316.8500 24.2236 1.00271708 44620
UTC large
Height (km)
Speed (km/s)
/
Latitude / Longitude
Inclination (degrees)
Orbital Period (minutes)
Azimuth
Elevation
Range (km)
Doppler Factor

Next 0 passes for location: London (51.5072 / 0.1276)

Sorry there are no passes over London.